Tracking 29892 objects as of 21-Nov-2024
HD Live streaming from Space Station
objects crossing your sky now

COSMOS 1275 DEB

Track COSMOS 1275 DEB now!
10-day predictions


NORAD ID: 42133
Int'l Code: 1981-053QV
Perigee: 925.3 km
Apogee: 1,167.6 km
Inclination: 83.1 °
Period: 106.0 minutes
Semi major axis: 7417 km
RCS: Unknown
Launch date: June 4, 1981
Source: Commonwealth of Independent States (former USSR) (CIS)
Launch site: PLESETSK MISSILE AND SPACE COMPLEX (PKMTR)

Note: This is SATELLITE DEBRIS
Your satellite tracking list
Your tracking list is empty




NASA's NSSDC Master Catalog

Two Line Element Set (TLE):
1 42133U 81053QV  24315.57801765  .00003072  00000-0  38199-2 0  9998
2 42133  83.1301  60.9073 0163303 334.0265  25.2751 13.58997880 41178
Source of the keplerian elements: AFSPC